Location: Isola Pescaroli
(45.0500°N, 10.1667°E)
Time: 01:40:45
(UTC+00:00)

USA 186 - Pass Details

Date: 03 March 2021
Orbit: 275 x 454 km, 96.9° (Epoch: 20 April)

Event Time Altitude Azimuth Distance (km) Brightness Sun altitude
Exits shadow 18:28:40 18° 28° (NNE) 884 3.2 -14.8°
Drops below altitude 10° 18:29:40 10° 12° (NNE) 1,231 4.1 -14.9°
Sets 18:31:47 0° 359° (N) 2,106 5.4 -15.3°
